Location: Scenic
(43.7797°N, 102.5549°W)
Time: 21:28:02
(UTC-07:00)

Tiangong 1 - Visible Passes

Search period start: 20 November 2017 00:00
Search period end: 30 November 2017 00:00
Orbit: 285 x 308 km, 42.8° (Epoch: 20 November)

Date Brightness Start Highest point End Pass type
(mag) Time Alt. Az. Time Alt. Az. Time Alt. Az.
25 Nov 3.0 17:20:02 10° S 17:21:22 13° SSE 17:22:23 11° SE visible
26 Nov 2.3 17:25:30 10° SSW 17:27:36 22° SSE 17:28:33 18° SE visible
27 Nov 1.6 17:31:22 10° SW 17:33:47 35° SSE 17:34:34 27° ESE visible
28 Nov 1.0 17:37:22 10° WSW 17:39:54 52° SSE 17:40:27 40° ESE visible
29 Nov 0.6 17:43:22 10° WSW 17:45:56 66° S 17:46:13 58° SE visible
